• Em Portugal
  • Lista de países
  • Para 7 dias
  • Temperatura da água
  • Mapas de satélite
  • Mapa do tempo
  • Widgets de tempo
  • user-avatar
    Iniciar Sessão

    Previsão horária em Nashavar

    Hoje, 18 Setembro, Terça-feira

    Tempo Temperatura Precipitação Vento Pressão Humidade
    00:00 +30°C° 0 mm 1 m/s 726 mmHg 33%
    01:00 +29°C° 0 mm 1 m/s 726 mmHg 34%
    02:00 +29°C° 0 mm 1 m/s 726 mmHg 35%
    03:00 +28°C° 0 mm 1 m/s 726 mmHg 36%
    04:00 +28°C° 0 mm 1 m/s 726 mmHg 36%
    05:00 +27°C° 0 mm 1 m/s 726 mmHg 36%
    06:00 +28°C° 0 mm 1 m/s 726 mmHg 33%
    07:00 +29°C° 0 mm 1 m/s 726 mmHg 31%
    08:00 +30°C° 0 mm 1 m/s 727 mmHg 28%
    09:00 +32°C° 0 mm 1 m/s 727 mmHg 25%
    10:00 +33°C° 0 mm 1 m/s 727 mmHg 22%
    11:00 +35°C° 0 mm 1 m/s 727 mmHg 18%
    12:00 +36°C° 0 mm 1 m/s 727 mmHg 18%
    13:00 +37°C° 0 mm 1 m/s 727 mmHg 17%
    14:00 +37°C° 0 mm 1 m/s 726 mmHg 16%
    15:00 +37°C° 0 mm 1 m/s 726 mmHg 17%
    16:00 +38°C° 0 mm 2 m/s 726 mmHg 18%
    17:00 +39°C° 0 mm 2 m/s 725 mmHg 21%
    18:00 +37°C° 0 mm 2 m/s 725 mmHg 23%
    19:00 +36°C° 0 mm 2 m/s 726 mmHg 25%
    20:00 +35°C° 0 mm 2 m/s 726 mmHg 28%
    21:00 +34°C° 0 mm 2 m/s 726 mmHg 29%
    22:00 +32°C° 0 mm 1 m/s 726 mmHg 31%
    23:00 +32°C° 0 mm 1 m/s 726 mmHg 33%

    Amanhã, 19 Setembro, Quarta-feira

    Tempo Temperatura Precipitação Vento Pressão Humidade
    00:00 +31°C° 0 mm 1 m/s 726 mmHg 33%
    01:00 +31°C° 0 mm 1 m/s 726 mmHg 34%
    02:00 +30°C° 0 mm 1 m/s 726 mmHg 34%
    03:00 +30°C° 0 mm 1 m/s 726 mmHg 35%
    04:00 +29°C° 0 mm 1 m/s 726 mmHg 36%
    05:00 +29°C° 0 mm 1 m/s 726 mmHg 36%
    06:00 +30°C° 0 mm 1 m/s 727 mmHg 34%
    07:00 +31°C° 0 mm 1 m/s 727 mmHg 31%
    08:00 +31°C° 0 mm 1 m/s 727 mmHg 28%
    09:00 +33°C° 0 mm 1 m/s 727 mmHg 24%
    10:00 +34°C° 0 mm 1 m/s 727 mmHg 20%
    11:00 +36°C° 0 mm 1 m/s 727 mmHg 16%
    12:00 +37°C° 0 mm 1 m/s 727 mmHg 15%
    13:00 +39°C° 0 mm 1 m/s 726 mmHg 14%
    14:00 +39°C° 0 mm 1 m/s 726 mmHg 13%
    15:00 +39°C° 0 mm 1 m/s 726 mmHg 14%
    16:00 +39°C° 0 mm 2 m/s 726 mmHg 16%
    17:00 +39°C° 0 mm 2 m/s 725 mmHg 17%
    18:00 +38°C° 0 mm 2 m/s 726 mmHg 19%
    19:00 +35°C° 0 mm 1 m/s 726 mmHg 22%
    20:00 +34°C° 0 mm 1 m/s 726 mmHg 25%
    21:00 +33°C° 0 mm 1 m/s 726 mmHg 26%
    22:00 +32°C° 0 mm 1 m/s 726 mmHg 27%
    23:00 +32°C° 0 mm 1 m/s 726 mmHg 28%

    Depois de amanhã, 20 Setembro, Quinta-feira

    Tempo Temperatura Precipitação Vento Pressão Humidade
    00:00 +31°C° 0 mm 1 m/s 726 mmHg 28%
    01:00 +31°C° 0 mm 1 m/s 726 mmHg 28%
    02:00 +30°C° 0 mm 1 m/s 726 mmHg 29%
    03:00 +30°C° 0 mm 1 m/s 726 mmHg 28%
    04:00 +29°C° 0 mm 1 m/s 726 mmHg 28%
    05:00 +29°C° 0 mm 1 m/s 726 mmHg 28%
    06:00 +30°C° 0 mm 1 m/s 726 mmHg 25%
    07:00 +30°C° 0 mm 1 m/s 727 mmHg 23%
    08:00 +31°C° 0 mm 1 m/s 727 mmHg 20%
    09:00 +33°C° 0 mm 1 m/s 727 mmHg 18%
    10:00 +34°C° 0 mm 1 m/s 727 mmHg 15%
    11:00 +36°C° 0 mm 1 m/s 728 mmHg 13%
    12:00 +37°C° 0 mm 1 m/s 727 mmHg 12%
    13:00 +39°C° 0 mm 1 m/s 727 mmHg 12%
    14:00 +40°C° 0 mm 1 m/s 727 mmHg 11%
    15:00 +39°C° 0 mm 1 m/s 727 mmHg 13%
    16:00 +39°C° 0 mm 2 m/s 726 mmHg 14%
    17:00 +39°C° 0 mm 2 m/s 726 mmHg 15%
    18:00 +38°C° 0 mm 2 m/s 726 mmHg 17%
    19:00 +36°C° 0 mm 2 m/s 727 mmHg 19%
    20:00 +34°C° 0 mm 1 m/s 727 mmHg 21%
    21:00 +33°C° 0 mm 1 m/s 727 mmHg 21%
    22:00 +32°C° 0 mm 1 m/s 727 mmHg 22%
    23:00 +32°C° 0 mm 1 m/s 727 mmHg 22%

    21 Setembro, Sexta-feira

    Tempo Temperatura Precipitação Vento Pressão Humidade
    00:00 +31°C° 0 mm 1 m/s 727 mmHg 23%
    01:00 +30°C° 0 mm 1 m/s 727 mmHg 23%
    02:00 +30°C° 0 mm 1 m/s 727 mmHg 24%
    03:00 +29°C° 0 mm 1 m/s 727 mmHg 25%
    04:00 +29°C° 0 mm 1 m/s 727 mmHg 26%
    05:00 +28°C° 0 mm 1 m/s 727 mmHg 26%
    06:00 +29°C° 0 mm 1 m/s 728 mmHg 24%
    07:00 +30°C° 0 mm 1 m/s 728 mmHg 23%
    08:00 +31°C° 0 mm 1 m/s 729 mmHg 21%
    09:00 +33°C° 0 mm 1 m/s 729 mmHg 19%
    10:00 +34°C° 0 mm 1 m/s 729 mmHg 17%
    11:00 +36°C° 0 mm 1 m/s 729 mmHg 15%
    12:00 +36°C° 0 mm 1 m/s 729 mmHg 15%
    13:00 +38°C° 0 mm 2 m/s 728 mmHg 15%
    14:00 +39°C° 0 mm 2 m/s 728 mmHg 15%
    15:00 +39°C° 0 mm 2 m/s 728 mmHg 15%
    16:00 +39°C° 0 mm 2 m/s 728 mmHg 16%
    17:00 +39°C° 0 mm 2 m/s 727 mmHg 17%
    18:00 +37°C° 0 mm 2 m/s 728 mmHg 19%
    19:00 +36°C° 0 mm 2 m/s 728 mmHg 22%
    20:00 +34°C° 0 mm 1 m/s 728 mmHg 24%
    21:00 +33°C° 0 mm 1 m/s 729 mmHg 25%
    22:00 +32°C° 0 mm 1 m/s 729 mmHg 26%
    23:00 +32°C° 0 mm 1 m/s 729 mmHg 27%

    22 Setembro, Sábado

    Tempo Temperatura Precipitação Vento Pressão Humidade
    00:00 +31°C° 0 mm 1 m/s 729 mmHg 28%
    01:00 +30°C° 0 mm 1 m/s 729 mmHg 29%
    02:00 +30°C° 0 mm 1 m/s 729 mmHg 30%
    03:00 +29°C° 0.1 mm 1 m/s 729 mmHg 31%
    04:00 +29°C° 0.1 mm 1 m/s 729 mmHg 32%
    05:00 +28°C° 0.1 mm 1 m/s 729 mmHg 33%
    06:00 +29°C° 0.1 mm 1 m/s 730 mmHg 31%
    07:00 +30°C° 0.1 mm 1 m/s 730 mmHg 29%
    08:00 +31°C° 0.1 mm 1 m/s 730 mmHg 27%
    09:00 +32°C° 0 mm 1 m/s 730 mmHg 26%
    10:00 +34°C° 0 mm 2 m/s 730 mmHg 24%
    11:00 +36°C° 0 mm 2 m/s 730 mmHg 23%
    12:00 +36°C° 0 mm 2 m/s 730 mmHg 22%
    13:00 +37°C° 0 mm 2 m/s 729 mmHg 22%
    14:00 +37°C° 0 mm 1 m/s 728 mmHg 21%
    15:00 +38°C° 0 mm 2 m/s 728 mmHg 21%
    16:00 +38°C° 0 mm 2 m/s 727 mmHg 22%
    17:00 +38°C° 0 mm 2 m/s 727 mmHg 22%
    18:00 +36°C° 0 mm 1 m/s 727 mmHg 24%
    19:00 +35°C° 0 mm 1 m/s 728 mmHg 27%
    20:00 +34°C° 0 mm 1 m/s 728 mmHg 29%
    21:00 +33°C° 0 mm 1 m/s 728 mmHg 30%
    22:00 +32°C° 0 mm 1 m/s 729 mmHg 32%
    23:00 +32°C° 0 mm 1 m/s 729 mmHg 33%

    23 Setembro, Domingo

    Tempo Temperatura Precipitação Vento Pressão Humidade
    00:00 +31°C° 0.1 mm 1 m/s 729 mmHg 34%
    01:00 +30°C° 0.1 mm 1 m/s 729 mmHg 36%
    02:00 +30°C° 0.1 mm 1 m/s 729 mmHg 37%
    03:00 +29°C° 0.2 mm 1 m/s 729 mmHg 39%
    04:00 +29°C° 0.2 mm 1 m/s 729 mmHg 41%
    05:00 +28°C° 0.2 mm 1 m/s 729 mmHg 42%
    06:00 +29°C° 0.1 mm 1 m/s 729 mmHg 40%
    07:00 +29°C° 0.1 mm 1 m/s 729 mmHg 38%
    08:00 +30°C° 0.1 mm 1 m/s 730 mmHg 36%
    09:00 +31°C° 0.1 mm 1 m/s 730 mmHg 35%
    10:00 +32°C° 0.1 mm 1 m/s 730 mmHg 34%
    11:00 +35°C° 0.1 mm 2 m/s 730 mmHg 32%
    12:00 +35°C° 0 mm 2 m/s 729 mmHg 31%
    13:00 +36°C° 0 mm 2 m/s 728 mmHg 30%
    14:00 +37°C° 0 mm 2 m/s 728 mmHg 29%
    15:00 +37°C° 0 mm 2 m/s 728 mmHg 29%
    16:00 +37°C° 0 mm 2 m/s 727 mmHg 29%
    17:00 +37°C° 0 mm 2 m/s 727 mmHg 29%
    18:00 +36°C° 0.1 mm 2 m/s 728 mmHg 32%
    19:00 +35°C° 0.1 mm 2 m/s 728 mmHg 36%
    20:00 +34°C° 0.1 mm 2 m/s 728 mmHg 39%
    21:00 +32°C° 0.2 mm 2 m/s 728 mmHg 41%
    22:00 +31°C° 0.2 mm 1 m/s 728 mmHg 43%
    23:00 +31°C° 0.2 mm 1 m/s 728 mmHg 45%
    Mostrar mais